Погода в Казанке

Украина / Николаевская область     47°50′17″N   32°49′34″E
В апреле 2022 года жителям России запретили посещать сайт meteo.paraplan.net по решению Генеральной прокуратуры. Аудитория сайта уменьшилась в 10 раз. Владельцы сайта не видят смысла в поддержке погодного сервера в таких условиях. Сайт будет закрыт в октябре.
темп.,
°C
ветер,
м/с
пор.,
м/с
влажн.,
%
обл.,
%
осадки,
мм/ч
давл.,
гПа
погр.,
м
5 октября, ср
ср500:00+9з387415 0.0 1020195
03:00+8з48838 0.0 1021173
06:00+8з4987100 0.0 1023229
09:00+11зсз577812 0.0 1024382
12:00+16зсз68520 0.0 10251448
15:00+17зсз674391 0.0 10241840
18:00+15зсз4652100 0.0 1025201
21:00+13сз3561100 0.0 1027107
6 октября, чт
чт600:00+11зсз3369100 0.0 102747
03:00+11зсз3370100 0.0 102843
06:00+10з2271100 0.0 102821
09:00+12зюз236499 0.0 1027180
12:00+16з345098 0.0 1027614
15:00+19з453745 0.0 10261044
18:00+17зюз234559 0.0 102619
21:00+14зюз334958 0.0 102621
7 октября, пт
пт700:00+13з335379 0.0 102735
03:00+12зсз3359100 0.0 102730
06:00+11ссз337294 0.0 102632
09:00+14с467177 0.0 1027240
12:00+19ссв675683 0.0 1026900
15:00+20ссв675491 0.0 10251343
18:00+17ссв5960100 0.0 1026342
21:00+14ссв4106584 0.0 1026225
8 октября, сб
сб800:00+13св51166100 0.0 1026258
03:00+11св49755 0.0 1025181
06:00+10св49795 0.0 1025161
09:00+13всв58695 0.0 1024293
12:00+18всв56565 0.0 1023957
15:00+21всв55455 0.0 10201345
18:00+18всв33535 0.0 102034
21:00+15всв336238 0.0 102026
9 октября, вс
вс900:00+14в336558 0.0 101923
03:00+13св336777 0.0 101924
06:00+12св337164 0.0 101840
09:00+15ссв346178 0.0 1019170
12:00+19с454477 0.0 1019994
15:00+19ссз7747100 0.0 10191488
18:00+16с7105499 0.0 1020672
21:00+12с714760 0.0 1023538